Torna al catalogo

CZ-4 DEB

AttivoSSO
NORAD 26168·DEBRIS·🇨🇳 China

Lanciato Oct 14, 1999 da Taiyuan Satellite Launch Center

Loading…

Prossimi Passaggi (prossime 24 ore)

TLE

AggiornatoSource: Space-Track

Epoca: Sep 14, 2026, 14:16 UTC

1 26168U 99057BE  26257.59491470  .00000140  00000-0  61056-4 0  9991
2 26168  98.7847 304.5019 0102666  40.4612 121.2839 14.35841154386681

Traccia CZ-4 DEB in tempo reale con AllMySat

Download on the App Store